Change the Weather History Date:

Thursday, February 28, 2013

  Actual Average Record
Temperature  
Mean Temperature 76 °F -  
Max Temperature 87 °F 83 °F - ()
Min Temperature 65 °F 64 °F - ()
Cooling Degree Days 11    
Growing Degree Days 26 (Base 50)    
Moisture  
Dew Point 58 °F    
Average Humidity 56    
Maximum Humidity 73    
Minimum Humidity 25    
Precipitation  
Precipitation 0.00 in 0.02 in - ()
Sea Level Pressure  
Sea Level Pressure 29.93 in    
Wind  
Wind Speed 8 mph ()    
Max Wind Speed 24 mph    
Max Gust Speed 24 mph    
Visibility 8.1 miles    
Events      
T = Trace of Precipitation, MM = Missing Value Source: Averaged Metar Reports

Daily Weather History Graph

Daily Weather History Graph

Search for Another Location

Airport or City:

Trip Planner

Search our weather history database for the weather conditions in past years. The results will help you decide how hot, cold, wet, or windy it might be!

Date:

Astronomy

Feb. 28, 2013 Rise Set
Actual Time 5:51 AM CST 5:47 PM CST
Civil Twilight 5:30 AM CST 6:08 PM CST
Nautical Twilight 5:05 AM CST 6:32 PM CST
Astronomical Twilight 4:41 AM CST 6:57 PM CST
Moon 8:23 PM CST (2/28) 7:43 AM CST (2/28)
Length of Visible Light 12h 38m
Length of Day
11h 55m
Waning Gibbous, 90% of the Moon is Illuminated
Feb 28
Waning Gibbous
Mar 4
Last Quarter
Mar 11
New
Mar 19
First Quarter
Mar 27
Full

Hourly Weather History & Observations

Time (CST) Temp. Heat Index Dew Point Humidity Pressure Visibility Wind Dir Wind Speed Gust Speed Precip Events Conditions
12:00 AM 68 °F - 59 °F 67% 29.82 in 12 mi East 6.9 mph - -   Clear
12:00 AM 68.0 °F - 59.0 °F 73% 29.98 in - East 6.9 mph - N/A   Clear
1:00 AM 68.0 °F - 59.0 °F 73% 29.96 in - East 5.8 mph - N/A   Clear
2:00 AM 68.0 °F - 59.0 °F 73% 29.95 in 6.2 mi ENE 6.9 mph - N/A   Mostly Cloudy
3:00 AM 67 °F - 58 °F 64% 29.79 in 12 mi ENE 8.1 mph - -   Clear
3:00 AM 68.0 °F - 57.2 °F 68% 29.96 in 6.2 mi ENE 8.1 mph - N/A   Mostly Cloudy
4:00 AM 68.0 °F - 59.0 °F 73% 29.96 in 6.2 mi ENE 5.8 mph - N/A   Mostly Cloudy
5:00 AM 66.2 °F - 57.2 °F 73% 29.97 in - ENE 9.2 mph - N/A   Clear
6:00 AM 66 °F - 55 °F 60% 29.86 in 12 mi NE 8.1 mph - -   Overcast
6:00 AM 66.2 °F - 55.4 °F 68% 30.00 in - NE 8.1 mph - N/A   Clear
7:00 AM 71.6 °F - 57.2 °F 60% 30.00 in - NE 10.4 mph - N/A   Clear
8:00 AM 75.2 °F - 57.2 °F 53% 30.01 in - East 9.2 mph - N/A   Clear
9:00 AM 81 °F - 56 °F 31% 29.84 in 12 mi ESE 11.5 mph - -   Clear
9:00 AM 80.6 °F 80.5 °F 55.4 °F 42% 30.01 in - ESE 11.5 mph - N/A   Clear
10:00 AM 82.4 °F 81.7 °F 55.4 °F 39% 30.01 in - ESE 11.5 mph - N/A   Clear
11:00 AM 84.2 °F 83.0 °F 55.4 °F 37% 29.98 in 6.2 mi ESE 12.7 mph - N/A   Partly Cloudy
12:00 PM 86 °F - 56 °F 25% 29.77 in 12 mi ESE 10.4 mph - -   Partly Cloudy
12:00 PM 86.0 °F 84.5 °F 55.4 °F 35% 29.95 in 6.2 mi ESE 10.4 mph - N/A   Scattered Clouds
1:00 PM 86.0 °F 84.9 °F 57.2 °F 37% 29.93 in 6.2 mi East 12.7 mph - N/A   Scattered Clouds
2:00 PM 84.2 °F 83.8 °F 59.0 °F 42% 29.90 in 6.2 mi East 11.5 mph - N/A   Scattered Clouds
3:00 PM 82 °F - 67 °F 52% 29.73 in 12 mi East 24.2 mph - -   Partly Cloudy
3:00 PM 82.4 °F 82.5 °F 59.0 °F 45% 29.89 in 6.2 mi East 12.7 mph 24.2 mph N/A   Scattered Clouds
4:00 PM 80.6 °F 81.1 °F 59.0 °F 48% 29.90 in 6.2 mi ESE 10.4 mph - N/A   Scattered Clouds
5:00 PM 73.4 °F - 59.0 °F 61% 29.92 in 6.2 mi ESE 15.0 mph - N/A   Scattered Clouds
6:00 PM 71 °F - 58 °F 53% 29.83 in 12 mi ESE 12.7 mph - -   Partly Cloudy
6:00 PM 71.6 °F - 57.2 °F 60% 29.93 in 6.2 mi ESE 12.7 mph - N/A   Mostly Cloudy
7:00 PM 69.8 °F - 57.2 °F 64% 29.97 in 6.2 mi East 10.4 mph - N/A   Mostly Cloudy
8:00 PM 69.8 °F - 59.0 °F 68% 29.99 in 6.2 mi ESE 10.4 mph - N/A   Scattered Clouds
9:00 PM 69 °F - 58 °F 60% 29.85 in 12 mi East 10.4 mph - -   Partly Cloudy
9:00 PM 69.8 °F - 59.0 °F 68% 30.00 in 6.2 mi East 10.4 mph - N/A   Scattered Clouds
10:00 PM 69.8 °F - 59.0 °F 68% 30.01 in 6.2 mi East 9.2 mph - N/A   Scattered Clouds
11:00 PM 69.8 °F - 59.0 °F 68% 30.00 in 6.2 mi East 6.9 mph - N/A   Mostly Cloudy